Temp
68 56 51 58 63 65 64 61 59 65 72 65 65 65 70 78 79 73 75 76 76 84 82 84 88 87 83 82 79 77 79 78 79 75 73 72 72 73 72 73 74 73 72 72
62 55 65 70 70 67 66 61 59 66 72 67 64 65 70 72 72 74 75 75 76 75 79 86 85 84 82 81 80 80 79 79 79 79 74 74 73 72 72 71 72 72 72 71
58 64 74 71 68 66 63 59 60 60 67 68 63 61 64 72 73 76 78 77 77 77 77 79 81 82 82 81 79 80 79 80 79 78 76 73 70 72 69 68 68 70 71 72
63 71 71 69 67 68 58 68 68 66 59 49 62 49 58 65 69 72 73 75 76 77 78 77 80 80 79 80 82 82 79 79 79 79 77 72 70 72 68 69 67 68 70 71
62 65 66 65 68 72 64 71 67 65 58 49 54 46 53 63 63 67 75 77 81 83 78 77 80 81 81 82 82 81 79 78 80 79 80 76 72 69 70 65 67 66 66 69
65 74 70 69 73 73 74 68 64 58 52 45 51 51 55 56 63 68 73 71 78 85 84 79 79 82 81 82 81 80 79 77 79 78 78 76 73 68 65 65 65 66 66 65
61 64 71 74 65 69 66 53 42 39 39 42 55 53 57 64 70 71 71 68 73 76 72 74 74 79 81 80 79 78 78 75 77 77 76 76 70 68 67 66 64 66 66 66
49 49 64 68 63 55 57 50 43 34 36 45 57 51 56 67 71 69 75 72 72 72 75 74 74 73 71 73 68 66 70 71 73 74 75 74 71 69 67 67 65 64 68 71
46 50 63 68 66 62 56 48 58 47 46 41 47 53 61 61 61 62 59 59 56 63 74 74 75 73 73 68 69 68 64 66 70 70 69 69 71 69 68 67 67 67 67 72
51 40 59 62 64 64 57 61 46 45 34 32 43 46 46 48 50 54 54 54 57 58 64 72 74 75 76 70 66 65 65 64 67 68 70 72 72 69 69 68 67 68 67 67
51 45 46 55 52 48 49 46 48 48 46 34 32 40 50 47 49 51 54 55 53 53 59 65 68 71 74 70 67 65 64 66 67 66 67 66 70 68 66 65 66 67 67 70
50 42 35 44 55 60 56 50 48 37 36 41 37 37 54 50 51 53 52 55 55 56 55 62 64 67 70 69 70 62 62 64 64 64 62 64 68 70 68 67 70 67 67 69
49 38 28 36 46 53 49 53 51 45 40 36 31 38 54 53 51 52 51 55 55 58 57 61 63 66 67 68 70 70 68 67 66 64 64 62 66 64 65 67 68 68 68 68
52 39 36 28 37 45 43 48 51 45 32 36 38 43 51 50 48 49 54 56 55 52 56 62 60 62 66 67 68 69 70 70 67 66 63 63 64 62 68 68 68 68 69 67
44 34 39 43 46 48 46 46 48 44 44 37 42 43 48 52 49 51 53 54 56 57 60 59 59 62 68 68 66 66 67 69 67 67 65 63 62 62 68 68 69 69 68 67
43 33 38 37 44 46 43 46 47 47 48 46 46 45 55 56 57 54 56 55 55 57 60 59 60 66 63 65 66 65 64 67 65 64 66 64 66 66 64 66 67 67 66 67
39 34 31 28 42 41 33 42 46 46 48 46 40 46 52 52 55 56 56 57 57 59 61 60 62 60 62 61 64 64 64 64 65 64 65 65 63 62 61 65 65 65 64 65
38 35 33 28 33 21 39 51 53 48 49 48 48 49 50 50 53 57 58 57 57 59 58 59 59 61 61 61 60 61 65 63 63 62 63 63 64 66 65 65 64 64 64 64
44 37 29 22 25 36 43 46 43 37 39 47 45 47 50 52 52 49 54 55 55 54 55 56 58 59 60 62 62 60 61 62 62 61 59 59 60 62 65 64 63 63 63 63
48 42 32 29 20 18 37 45 50 49 32 47 47 46 46 48 37 41 51 54 54 59 57 56 58 60 60 60 59 58 59 59 59 61 58 58 57 57 59 62 62 64 63 62
34 34 27 26 27 31 43 46 50 30 30 45 47 45 45 41 43 47 52 53 57 57 57 59 58 56 58 59 59 59 59 58 60 65 58 56 54 55 56 57 61 62 62 63
33 28 26 29 25 25 48 47 37 39 44 46 45 44 42 43 46 48 51 53 55 55 56 57 55 54 56 59 57 57 56 58 60 59 57 53 52 53 55 52 54 58 60 61
29 36 30 32 32 44 44 43 43 42 40 42 42 44 43 43 43 45 46 50 53 54 54 55 54 54 55 56 56 55 57 59 58 56 54 56 55 51 50 50 50 50 50 50
40 46 33 36 41 41 44 44 44 44 42 44 45 44 44 42 45 44 47 49 51 55 54 54 53 53 53 55 58 56 58 59 57 54 56 55 53 51 50 50 50 50 49 48
39 42 37 36 41 40 44 43 43 43 44 45 46 45 44 44 43 45 46 48 50 53 55 52 52 52 53 55 56 58 59 57 55 53 52 53 52 46 46 43 43 47 48 49
42 37 33 31 39 38 39 43 44 42 42 44 44 43 44 45 44 47 47 46 49 51 52 50 51 51 53 55 56 59 57 55 53 52 51 53 52 46 48 47 44 41 41 40
MSLP
1006.83 1007.54 1007.47 1007.29 1007.13 1007.13 1006.93 1006.46 1005.97 1005.04 1004.21 1004.12 1003.79 1003.35 1002.73 1001.74 1001.46 1001.77 1001.96 1002.06 1001.94 1001.64 1001.29 1001.26 1001.78 1002.50 1003.27 1004.34 1005.33 1006.50 1007.48 1007.98 1008.94 1010.10 1011.15 1011.65 1011.99 1012.38 1012.78 1012.96 1013.36 1013.96 1014.28 1014.81
1007.03 1006.89 1006.71 1006.43 1006.18 1006.15 1006.10 1005.91 1005.53 1004.77 1004.04 1003.81 1003.73 1003.38 1002.50 1001.98 1001.55 1001.25 1001.43 1001.65 1001.58 1001.36 1001.12 1000.93 1001.52 1002.20 1002.68 1003.79 1004.58 1005.74 1006.21 1006.99 1008.13 1009.13 1010.16 1011.22 1011.95 1012.50 1012.78 1013.02 1013.41 1013.89 1014.50 1014.94
1006.61 1005.92 1005.67 1005.44 1005.19 1005.11 1005.02 1005.14 1005.06 1004.86 1004.35 1003.82 1004.04 1003.34 1002.71 1001.77 1001.45 1001.19 1000.77 1000.75 1000.95 1001.01 1001.06 1000.59 1000.94 1001.75 1002.56 1003.17 1004.29 1005.09 1005.65 1006.39 1006.76 1008.22 1009.47 1010.67 1011.97 1012.58 1013.05 1013.27 1013.46 1014.27 1014.35 1014.70
1005.87 1005.24 1004.84 1004.56 1004.38 1004.24 1004.18 1004.21 1004.37 1004.62 1004.65 1004.75 1004.60 1003.94 1003.53 1002.57 1001.83 1001.25 1000.92 1001.06 1000.54 1000.42 1000.45 1000.45 1000.96 1001.36 1001.85 1002.45 1002.83 1003.49 1004.59 1005.41 1006.08 1006.28 1008.09 1009.45 1011.19 1012.39 1012.70 1013.20 1013.43 1014.15 1014.38 1015.03
1005.36 1005.01 1004.58 1004.15 1003.71 1003.38 1003.36 1003.57 1004.14 1004.53 1004.79 1005.14 1005.22 1005.01 1003.55 1002.98 1002.57 1001.72 1000.95 1000.51 1000.08 999.81 999.86 999.97 1000.44 1001.01 1001.33 1001.64 1002.57 1003.37 1004.01 1004.55 1005.31 1005.83 1005.88 1007.37 1009.45 1011.08 1012.22 1013.00 1014.02 1014.53 1014.98 1015.19
1005.39 1004.80 1004.49 1004.06 1003.55 1003.35 1003.33 1003.49 1003.93 1004.46 1005.23 1005.35 1005.67 1005.09 1003.73 1003.51 1002.46 1001.68 1000.95 1000.90 1000.09 999.40 998.97 999.23 999.79 1000.29 1001.11 1001.73 1002.32 1003.01 1003.63 1004.28 1004.78 1005.69 1005.59 1006.11 1008.34 1010.37 1011.45 1012.77 1013.96 1014.95 1015.42 1015.73
1005.75 1005.07 1004.48 1004.53 1003.90 1003.32 1003.65 1004.44 1005.33 1005.97 1005.98 1005.53 1005.72 1004.91 1004.11 1003.43 1002.41 1001.69 1001.39 1001.00 1000.19 1000.29 1000.18 1000.00 999.87 1000.47 1000.95 1001.59 1002.01 1002.75 1003.22 1004.11 1004.64 1005.20 1005.34 1006.35 1007.86 1009.99 1011.23 1011.99 1012.91 1015.00 1015.35 1016.02
1007.07 1005.96 1005.51 1005.91 1006.07 1006.29 1005.60 1006.21 1007.03 1006.77 1006.76 1006.32 1005.74 1004.63 1004.31 1004.53 1003.79 1002.55 1001.71 1001.21 1001.17 1000.92 1000.99 1000.92 1000.61 1000.82 1001.53 1002.47 1003.89 1005.30 1006.02 1006.23 1006.27 1006.11 1006.27 1006.65 1007.61 1008.84 1010.07 1010.67 1010.81 1012.49 1014.74 1014.26
1008.91 1007.54 1006.96 1007.31 1007.35 1007.49 1006.97 1006.94 1007.19 1007.30 1007.33 1007.05 1006.44 1005.42 1004.62 1005.14 1005.78 1005.42 1005.15 1004.76 1004.87 1004.72 1003.61 1002.56 1002.26 1001.79 1001.88 1002.61 1003.33 1004.19 1006.69 1007.25 1007.18 1008.22 1007.68 1007.49 1008.13 1008.76 1009.49 1010.01 1010.41 1010.47 1012.53 1012.84
1010.91 1010.24 1008.93 1008.15 1008.23 1007.83 1008.81 1008.46 1008.07 1009.08 1009.27 1008.72 1007.65 1007.18 1007.05 1007.82 1008.36 1008.73 1007.39 1007.05 1006.75 1006.51 1006.23 1005.68 1003.93 1003.64 1003.88 1003.88 1004.35 1005.31 1005.60 1005.79 1007.46 1007.31 1007.71 1007.82 1008.43 1009.29 1009.72 1009.69 1010.23 1011.05 1011.30 1012.51
1012.02 1012.11 1011.39 1010.86 1010.40 1010.35 1009.87 1010.01 1010.48 1010.57 1011.07 1010.65 1009.78 1009.04 1008.61 1009.22 1009.17 1009.21 1009.45 1009.13 1008.94 1008.78 1008.19 1007.41 1006.53 1005.59 1004.97 1005.64 1005.50 1005.46 1005.64 1005.09 1004.89 1005.81 1006.33 1007.49 1008.69 1009.53 1009.83 1008.77 1009.91 1010.54 1011.93 1012.09
1013.26 1013.33 1013.23 1012.75 1012.01 1011.15 1010.81 1010.91 1011.15 1011.49 1011.21 1011.07 1011.07 1010.32 1009.85 1010.29 1010.17 1010.09 1010.24 1009.90 1009.91 1009.94 1009.59 1009.12 1007.63 1007.64 1006.43 1006.02 1006.55 1007.54 1007.04 1006.17 1005.98 1006.32 1006.70 1007.41 1008.38 1007.81 1008.79 1008.96 1009.24 1009.88 1011.12 1010.87
1014.21 1014.63 1014.56 1013.74 1012.75 1011.71 1011.47 1011.77 1011.62 1011.67 1011.73 1011.84 1011.92 1010.82 1010.30 1010.13 1010.61 1010.67 1010.96 1010.99 1010.63 1010.98 1011.79 1011.97 1008.46 1006.88 1007.53 1007.05 1006.76 1006.97 1007.61 1007.42 1006.83 1006.62 1007.07 1006.68 1005.29 1007.49 1007.55 1008.89 1008.66 1009.16 1009.69 1010.48
1014.98 1015.97 1016.24 1015.94 1015.24 1014.15 1013.17 1012.54 1012.12 1012.21 1012.66 1012.34 1012.14 1011.20 1010.83 1011.02 1011.15 1010.92 1010.70 1010.89 1010.92 1012.22 1012.45 1011.07 1009.11 1008.72 1007.75 1007.03 1006.52 1006.64 1006.87 1007.29 1006.93 1006.61 1006.88 1006.06 1004.63 1005.54 1007.04 1007.07 1007.24 1007.71 1009.10 1009.74
1016.05 1016.84 1016.87 1016.36 1015.61 1014.51 1013.63 1013.09 1012.69 1012.66 1012.64 1012.51 1011.84 1011.52 1011.07 1010.62 1010.44 1010.21 1010.04 1010.19 1010.68 1010.81 1010.84 1010.81 1010.44 1009.04 1008.21 1008.05 1007.05 1007.57 1007.53 1007.51 1007.21 1006.08 1006.17 1006.02 1005.63 1006.50 1007.02 1007.81 1007.91 1007.54 1008.70 1009.67
1016.79 1017.43 1017.36 1016.94 1016.13 1015.05 1014.11 1013.48 1013.00 1012.81 1012.56 1012.25 1011.79 1011.09 1010.38 1009.89 1009.68 1009.62 1009.60 1010.03 1010.21 1010.16 1010.29 1010.63 1009.89 1009.98 1009.14 1009.08 1008.27 1008.40 1008.20 1008.01 1007.58 1007.30 1006.76 1006.87 1007.21 1006.98 1008.26 1008.01 1007.77 1008.37 1009.25 1009.60
1016.92 1017.48 1017.84 1017.55 1016.58 1015.62 1014.55 1013.60 1013.04 1012.82 1012.62 1012.40 1012.26 1011.47 1010.66 1010.47 1009.98 1009.30 1009.05 1009.03 1009.19 1009.13 1008.97 1009.20 1008.89 1009.26 1008.47 1008.85 1009.12 1009.27 1008.89 1008.41 1008.20 1007.65 1007.54 1007.98 1007.35 1007.28 1007.10 1007.91 1008.02 1007.71 1008.61 1009.03
1016.34 1017.14 1017.59 1017.65 1017.06 1016.12 1014.45 1013.45 1013.06 1013.15 1013.00 1013.01 1012.74 1012.45 1012.04 1011.81 1010.97 1009.90 1009.71 1009.33 1008.98 1008.96 1009.29 1009.48 1009.51 1009.54 1009.01 1008.64 1008.87 1008.75 1009.15 1009.14 1008.77 1008.23 1007.94 1007.95 1007.94 1007.39 1007.54 1007.61 1007.54 1007.72 1008.08 1008.59
1015.57 1016.72 1017.73 1017.94 1017.58 1016.15 1014.71 1014.75 1014.52 1014.63 1014.26 1014.39 1013.92 1013.39 1012.82 1012.32 1011.24 1010.95 1011.14 1010.87 1010.30 1009.91 1009.59 1009.55 1009.60 1009.54 1009.39 1008.93 1008.79 1008.64 1008.60 1009.15 1009.13 1008.97 1008.58 1008.79 1008.60 1008.20 1007.79 1007.89 1007.83 1007.91 1008.15 1008.37
1014.94 1015.87 1017.57 1017.92 1018.03 1017.19 1015.79 1015.43 1015.25 1014.69 1014.88 1014.85 1014.80 1014.37 1013.89 1013.67 1013.27 1012.78 1011.92 1011.30 1010.78 1010.12 1009.93 1009.75 1009.56 1009.48 1009.63 1009.52 1009.19 1008.91 1008.61 1008.60 1009.05 1008.97 1009.13 1008.78 1008.83 1008.49 1007.72 1007.34 1007.39 1007.53 1007.63 1007.95
1015.83 1016.44 1017.43 1017.77 1017.92 1017.24 1016.27 1015.96 1015.16 1015.42 1016.37 1015.57 1015.44 1015.26 1015.06 1014.90 1014.57 1013.52 1012.77 1011.75 1011.21 1010.71 1010.21 1009.64 1009.55 1009.50 1009.48 1009.29 1009.36 1009.33 1009.12 1008.54 1008.14 1008.61 1009.00 1009.00 1009.04 1008.78 1008.14 1007.37 1006.76 1006.63 1007.07 1007.70
1016.56 1017.10 1017.50 1017.62 1017.53 1016.99 1016.45 1015.97 1016.82 1016.94 1016.20 1015.99 1015.66 1015.64 1015.47 1015.19 1014.58 1013.85 1013.15 1012.50 1011.53 1010.77 1010.48 1009.93 1009.70 1009.56 1009.33 1009.12 1009.15 1009.17 1009.08 1008.49 1008.07 1008.00 1008.62 1009.27 1009.39 1009.30 1008.57 1007.85 1006.98 1006.83 1007.27 1007.66
1017.03 1017.35 1017.75 1017.83 1016.98 1016.21 1016.80 1017.02 1017.05 1017.17 1016.93 1016.37 1016.17 1015.78 1015.50 1014.93 1014.32 1013.83 1012.81 1012.19 1011.40 1010.93 1010.38 1009.98 1009.65 1009.47 1009.24 1009.04 1008.77 1008.93 1008.64 1008.35 1008.37 1008.65 1008.67 1009.10 1009.54 1009.77 1009.49 1008.81 1008.26 1007.70 1007.51 1008.00
1017.53 1017.17 1017.35 1017.57 1016.71 1016.81 1016.67 1016.85 1016.85 1017.07 1016.95 1016.43 1016.01 1015.38 1014.89 1014.17 1013.71 1012.96 1012.50 1011.65 1010.99 1010.44 1009.95 1009.68 1009.57 1009.27 1009.07 1008.61 1008.53 1008.39 1008.27 1008.48 1008.55 1008.75 1009.14 1009.71 1009.77 1009.55 1009.61 1009.43 1009.17 1008.72 1008.53 1008.37
1018.11 1017.80 1017.55 1017.35 1016.93 1016.99 1016.56 1017.17 1017.04 1016.52 1016.28 1015.79 1015.19 1014.80 1014.15 1013.57 1012.75 1012.13 1011.47 1010.87 1010.39 1009.76 1009.20 1008.89 1008.86 1008.75 1008.56 1008.41 1008.35 1008.11 1008.00 1008.22 1008.48 1008.83 1009.21 1009.58 1010.31 1010.90 1010.77 1010.26 1010.17 1009.61 1009.17 1008.68
1017.52 1017.86 1018.32 1018.00 1017.80 1018.08 1017.17 1016.63 1016.41 1016.17 1015.66 1015.19 1014.59 1013.81 1013.37 1012.78 1011.96 1011.23 1010.58 1010.38 1009.91 1009.36 1008.92 1008.57 1008.57 1008.37 1008.33 1008.17 1007.96 1007.85 1007.75 1007.76 1008.09 1008.69 1009.10 1009.44 1009.99 1010.74 1011.21 1011.21 1011.37 1011.09 1010.14 1010.00
Wind_Speed
8 4 8 12 10 11 13 10 10 10 10 3 8 8 11 17 15 9 8 9 9 17 11 10 16 20 20 20 23 18 17 12 10 5 4 2 3 4 4 5 8 7 7 7
7 10 12 13 14 16 17 15 11 10 13 8 9 11 10 7 5 8 8 8 10 7 11 15 17 19 21 21 21 19 18 18 12 10 5 4 3 2 4 5 6 8 7 7
10 11 18 17 14 13 10 8 8 8 9 10 6 11 11 10 6 7 9 7 8 8 9 10 14 19 19 21 20 19 19 20 18 16 8 5 2 3 3 4 5 4 7 7
12 13 18 17 14 14 10 9 10 9 8 7 4 12 9 9 11 9 9 11 10 10 8 6 13 20 22 23 25 26 21 22 20 23 16 12 7 6 3 4 4 5 7 6
14 12 13 16 15 14 11 10 12 10 10 2 5 4 6 7 9 11 16 15 18 17 11 8 19 22 21 21 20 21 23 23 20 21 24 17 15 7 7 6 7 4 3 5
14 14 13 15 20 19 15 9 11 5 3 8 5 8 10 6 9 9 10 1 7 24 19 9 14 21 19 19 19 20 22 21 22 21 22 23 21 13 13 10 6 4 2 3
11 17 12 16 13 15 13 5 3 4 4 9 9 11 10 9 12 12 8 2 7 8 9 7 10 16 20 21 19 17 22 21 21 21 18 18 17 18 17 15 9 4 3 3
4 7 5 15 11 10 9 2 2 10 7 9 11 17 8 9 14 20 8 9 8 9 8 8 9 10 10 10 9 12 8 6 6 9 13 13 17 13 13 16 16 15 13 10
6 4 12 10 15 8 8 6 6 2 7 3 4 8 7 20 22 21 20 19 20 25 21 10 9 8 7 9 9 12 3 12 8 7 1 3 12 16 14 14 12 14 13 12
8 6 7 13 11 7 12 11 6 6 4 7 3 4 2 11 14 16 20 18 20 23 27 25 10 13 16 8 4 10 18 19 15 10 11 6 11 13 14 13 15 17 14 10
6 2 6 9 7 16 14 8 5 4 7 4 2 5 5 7 7 14 14 17 18 20 23 22 20 10 13 11 4 4 3 9 12 10 13 3 11 17 15 14 13 13 13 15
3 2 4 11 10 15 13 13 7 3 6 3 1 6 5 8 8 10 10 11 15 19 24 23 15 13 10 9 12 7 4 6 9 8 6 7 12 17 14 13 14 15 17 14
4 4 6 8 6 5 5 13 9 3 2 3 2 6 6 9 9 8 9 13 13 17 11 18 16 13 10 13 11 13 9 6 9 10 12 12 11 5 3 9 11 15 17 17
6 2 3 4 9 13 14 16 15 4 1 5 5 12 11 5 6 4 4 6 7 4 21 17 17 16 10 9 11 14 15 13 12 6 17 19 19 23 21 21 17 17 19 16
4 2 6 9 15 12 17 16 15 12 12 8 8 11 11 4 8 8 11 10 11 9 12 6 11 17 14 11 10 9 10 12 12 14 13 15 8 3 8 13 13 12 14 14
2 4 5 6 16 13 13 16 13 13 13 12 14 12 12 8 7 8 8 8 10 11 11 10 6 12 11 13 11 8 6 10 8 8 12 9 6 3 11 7 14 12 11 14
8 5 2 6 8 12 9 7 12 12 11 7 10 9 7 10 11 6 9 12 13 13 11 7 3 5 9 10 9 11 11 6 7 7 8 1 1 4 18 20 14 16 14 10
6 4 3 6 5 6 7 9 10 11 8 12 13 15 10 13 18 8 8 6 9 10 9 6 5 5 8 7 9 8 10 6 6 6 7 9 7 3 8 9 12 12 12 14
9 4 3 3 4 10 8 11 10 4 8 12 12 15 16 18 15 12 17 12 7 5 5 5 4 2 5 8 10 8 6 5 5 3 5 6 8 5 7 10 10 8 9 10
11 8 6 3 1 5 1 14 15 8 5 10 11 13 15 15 9 5 9 13 14 7 1 4 4 2 2 6 7 8 7 6 4 5 5 4 7 8 6 7 9 9 7 9
3 3 2 2 3 7 7 14 13 2 5 10 11 9 9 7 5 9 12 6 13 9 8 6 5 6 5 3 4 7 7 7 6 7 5 6 5 8 7 6 4 6 7 9
1 1 3 1 3 5 9 4 3 6 11 11 10 11 13 13 15 16 14 13 11 13 9 8 5 3 5 4 3 6 7 6 6 5 6 6 6 5 5 7 6 3 3 6
2 1 2 2 5 9 5 1 3 7 10 12 14 14 14 16 17 16 18 15 13 11 8 8 6 6 6 6 5 6 7 5 3 4 6 5 5 5 5 5 5 5 6 5
7 6 3 2 3 6 11 5 10 11 13 14 15 16 16 16 17 17 15 15 14 13 9 6 7 7 7 6 6 6 7 5 3 3 5 3 4 7 7 5 5 5 5 6
5 7 5 5 5 14 3 14 14 16 15 15 15 16 17 19 18 18 16 14 14 13 10 6 7 7 8 7 7 6 5 4 4 4 6 5 5 5 4 6 6 4 4 5
2 3 1 5 7 8 12 13 14 16 16 15 18 17 17 17 18 16 14 13 13 11 7 5 7 5 5 7 8 2 5 7 7 6 5 5 5 4 3 4 5 13 11 13
Wind_Direction
228 206 239 233 223 243 264 265 273 280 278 276 272 289 260 244 225 205 238 259 241 230 222 197 164 159 147 150 148 158 156 153 139 141 135 110 135 130 136 140 143 136 144 129
254 219 237 238 233 229 241 255 272 281 285 280 296 290 286 297 262 197 225 276 261 237 235 203 169 159 154 160 158 163 157 158 157 158 139 132 139 160 146 142 141 135 147 139
225 244 220 236 246 251 251 236 251 252 287 296 329 292 294 287 278 290 281 242 269 261 251 209 168 161 162 162 162 165 167 169 157 155 145 116 88 101 99 134 118 153 146 151
237 245 255 259 240 231 234 244 270 270 248 245 206 283 289 278 268 269 252 267 260 268 252 210 171 165 167 173 171 176 167 167 169 159 166 147 170 172 151 134 124 143 145 159
268 272 275 276 272 274 251 244 248 244 263 295 284 262 262 277 282 263 246 244 254 258 234 216 170 180 184 172 176 177 173 172 177 176 173 166 170 147 139 120 123 108 113 150
273 278 267 278 288 288 297 281 248 253 228 262 231 239 262 257 254 277 283 270 269 238 229 237 186 181 182 184 179 183 178 183 186 184 184 168 165 148 135 127 117 109 104 218
271 256 272 319 309 308 289 321 291 311 273 250 214 248 259 263 272 258 265 114 68 58 53 55 32 177 188 188 189 186 182 183 188 190 182 162 140 136 131 139 130 97 165 217
326 295 17 358 17 334 313 28 264 234 226 251 232 244 253 8 351 4 215 148 65 52 44 39 62 67 82 96 91 53 14 291 282 208 174 151 142 150 154 160 159 149 206 189
341 268 336 354 0 355 323 328 299 13 318 290 228 318 307 27 19 17 30 34 26 3 349 11 35 72 92 149 165 169 348 329 349 305 29 125 148 167 179 172 169 162 189 187
15 316 321 352 336 325 11 327 359 354 325 272 260 248 279 28 34 25 13 18 9 10 1 357 25 42 50 54 100 167 188 191 208 201 245 192 175 179 180 165 177 187 190 206
33 348 337 2 7 330 333 334 322 194 212 239 332 283 127 100 69 71 32 14 10 357 354 345 357 29 50 59 57 244 326 240 226 176 200 231 192 193 189 175 184 182 191 193
51 288 302 304 306 285 270 279 274 212 280 300 159 264 53 84 51 45 38 43 12 359 351 326 344 8 29 41 65 133 214 219 221 211 205 210 243 199 199 203 180 173 197 189
1 348 340 326 310 7 28 337 322 321 26 275 237 270 194 113 80 57 26 11 14 354 349 317 324 12 22 29 43 29 28 320 234 217 215 226 217 301 183 221 216 193 187 185
77 26 220 241 279 289 304 317 315 316 311 274 270 311 317 75 101 125 175 164 157 225 290 328 341 318 355 19 33 34 12 10 344 203 208 208 204 186 203 200 189 186 194 179
101 249 294 301 310 311 317 311 316 325 316 295 281 292 301 289 199 218 227 209 199 226 257 266 312 316 353 4 30 24 17 4 359 7 166 211 247 289 228 198 194 171 180 186
58 260 297 310 306 303 293 300 297 285 280 292 310 266 273 273 220 214 217 187 203 198 214 181 204 315 3 360 8 10 13 5 1 349 10 112 115 109 43 294 180 171 185 186
171 178 203 260 280 302 301 287 303 320 308 290 304 286 330 336 319 255 226 195 210 207 214 164 188 351 353 353 355 354 346 14 4 22 359 42 172 135 152 201 202 168 176 188
230 248 228 261 315 293 250 296 319 265 304 15 15 1 1 354 329 39 30 43 82 91 96 92 70 19 341 341 336 345 349 11 14 43 12 355 357 203 180 190 194 182 175 183
190 199 266 183 234 267 303 48 24 93 308 8 2 350 359 352 328 34 12 0 29 73 112 118 105 69 354 337 315 316 335 342 5 96 80 0 337 329 200 188 199 197 188 194
183 190 169 292 238 259 81 7 356 286 229 7 360 348 347 347 359 319 345 340 333 317 301 159 151 131 314 311 329 314 311 332 348 34 105 68 347 317 322 214 204 199 181 204
352 341 130 288 214 259 33 348 336 264 287 342 336 328 332 325 297 305 320 309 312 321 318 291 205 189 204 275 328 322 306 306 321 11 76 59 19 325 318 323 241 199 193 195
292 338 227 265 222 263 9 308 354 302 317 325 335 333 322 314 310 308 304 303 286 297 309 320 347 330 265 220 282 297 279 279 311 14 56 50 22 346 345 337 353 72 189 201
40 141 229 189 250 330 65 297 357 352 320 318 323 313 303 296 294 289 291 292 288 283 282 287 290 299 291 263 242 267 252 238 268 65 50 33 30 15 8 44 35 53 66 78
335 334 227 286 259 8 329 15 346 332 310 305 298 295 289 287 292 286 282 288 278 276 261 251 284 271 265 286 287 245 240 217 181 138 99 48 48 14 7 34 39 74 78 83
246 300 326 289 319 343 270 337 310 307 301 296 302 300 294 291 287 282 279 273 278 274 258 230 247 265 265 266 273 253 181 174 208 185 151 139 100 81 34 30 10 19 22 73
120 161 223 250 330 276 283 294 301 301 301 310 303 302 298 288 281 278 272 261 271 268 271 281 276 262 292 281 258 176 213 177 184 175 163 156 135 135 115 76 52 25 33 15